Preview of NWS' New Version of Forecast
This preview is not operational and should not be used for support decisions.

Regional Weather Roundup (RWR)

Issued by Philadelphia/Mt Holly (PHI)

                            
000
ASUS41 KPHI 170612
RWRPHI

REGIONAL WEATHER ROUNDUP
NATIONAL WEATHER SERVICE MOUNT HOLLY NJ
200 AM EDT TUE SEP 17 2019

NOTE:  "FAIR" INDICATES FEW OR NO CLOUDS BELOW 12,000 FEET WITH NO
SIGNIFICANT WEATHER AND/OR OBSTRUCTIONS TO VISIBILITY.

 * = STATION DOES NOT REPORT PRECIPITATION (E.G. RAIN, SNOW, ETC.) 
        OR FOG.

NJZ015>026-170700-
SOUTHERN NEW JERSEY
  
CITY           SKY/WX    TMP DP  RH WIND       PRES   REMARKS
POMONA         CLOUDY    70  67  90 CALM      30.04R                  
6HR MIN TEMP:  68; 6HR MAX TEMP:  73;                                

WILDWOOD*      CLOUDY    71  69  93 N3        30.03S                  
MILLVILLE      CLOUDY   N/A N/A N/A E5        30.03S                  
WRIGHTSTOWN    MOCLDY    66  65  95 NE5       30.05S                  
MOUNT HOLLY    FAIR      66  63  90 CALM      30.05S                  
TRENTON        CLOUDY    68  64  87 N3        30.06R                  
6HR MIN TEMP:  67; 6HR MAX TEMP:  73;                                


$$
NJZ001>014-170700-
NORTHERN NEW JERSEY
  
CITY           SKY/WX    TMP DP  RH WIND       PRES   REMARKS
SUSSEX         MOCLDY    56  54  93 CALM      30.11R FOG              
ANDOVER*         N/A     58  57  97 CALM      30.10S                  
MORRISTOWN     MOCLDY    61  61 100 CALM      30.08S                  
NEWARK         MOCLDY    68  56  65 N9        30.07R                  
TETERBORO      MOCLDY    66  58  75 N3        30.07R                  
CALDWELL       FAIR      64  61  90 NE3       30.09R                  
SOMERVILLE     MOCLDY    66  62  87 N3        30.06R                  
ALLAIRE*       CLOUDY    69  61  75 NE6       30.07S                  
TOMS RIVER*    CLOUDY   N/A N/A N/A CALM      30.06S                  

$$
PAZ043-044-047-054-055-060>062-066>071-170700-
EASTERN PENNSYLVANIA
  
CITY           SKY/WX    TMP DP  RH WIND       PRES   REMARKS
PHILADELPHIA   CLOUDY    69  63  81 NE3       30.05S                  
6HR MIN TEMP:  69; 6HR MAX TEMP:  78;                                

NORTH PHILA    MOCLDY    70  62  76 N6        30.06F                  
BLUE BELL*     MOCLDY    64  63  98 CALM      30.07S                  
DOYLESTOWN     CLOUDY    67  63  87 NE3       30.06S                  
QUAKERTOWN*    PTCLDY    66  57  72 N5        30.08                   
PERKASIE*      CLOUDY    64  63  94 N6        30.09S                  
POTTSTOWN      FAIR      65  65 100 NE6       30.08S                  
LANCASTER      CLOUDY    70  64  81 NE9       30.06R                  
COATESVILLE    FAIR      68  63  83 NE3       30.08R                  
WEST CHESTER   CLOUDY    70  61  73 NE5       30.06S                  
READING        NOT AVBL                                               
ALLENTOWN      FAIR      65  57  75 NE5       30.09R                  
6HR MIN TEMP:  65; 6HR MAX TEMP:  73;                                

QN CITY/ALNTWN FAIR      64  61  88 NE6       30.09S                  
MOUNT POCONO   FAIR      54  47  77 N10       30.13S                  
6HR MIN TEMP:  54; 6HR MAX TEMP:  60;                                

HAZLETON       FAIR      55  52  88 CALM      30.15S                  
LEHIGHTON      FAIR      55  55 100 CALM      30.10S FOG              
WILKES BARRE   FAIR      57  52  83 E6        30.13R                  

$$
DEZALL-MDZ008-012-015-019-020-170700-
DELAWARE AND EASTERN MARYLAND
  
CITY           SKY/WX    TMP DP  RH WIND       PRES   REMARKS
WILMINGTON     MOCLDY    70  67  90 NE7       30.04S                  
6HR MIN TEMP:  70; 6HR MAX TEMP:  78;                                

DOVER          CLOUDY    70  68  94 CALM      30.02S                  
CHESWOLD       CLOUDY    70  70 100 E6        30.02S                  
GEORGETOWN     CLOUDY    72  69  90 NE5       30.02R                  
6HR MIN TEMP:  70; 6HR MAX TEMP:  74;                                

EASTON         FAIR      72  67  87 CALM      30.03F                  
STEVENSVILLE   CLOUDY    73  70  88 N5        30.01R                  
PATUXENT       FAIR      73  69  87 CALM      29.99S                  
OCEAN CITY     MOCLDY    74  71  91 E3        30.01R                  
WALLOPS ISLAND CLOUDY    72  69  90 CALM      30.00S                  
CAMBRIDGE      CLOUDY    72  68  88 CALM      30.00S                  
SALISBURY      MOCLDY    68  65  90 CALM      30.00S                  

$$
PAZ001-021-NYZ056-072-MDZ011-DCZ001-170700-
OTHER NEARBY LOCATIONS
  
CITY           SKY/WX    TMP DP  RH WIND       PRES   REMARKS
HARRISBURG     MOCLDY    70  62  76 NW3       30.06R                  
STATE COLLEGE  MOCLDY    64  62  94 N6        30.13R                  
WILLIAMSPORT   FAIR      62  55  77 CALM      30.11R                  
BINGHAMTON     FAIR      50  47  89 NE6       30.15R                  
NEW YORK CITY  CLOUDY    69  50  50 NE6       30.11R                  
BALTIMORE      MOCLDY    75  63  66 VRB3      30.01S                  
WASHINGTON DC  MOCLDY    76  66  71 NE8       30.02R                  

$$